This is the latest recevied weather packets stored in our database for station/object KB1RMA-4. If no packets are shown the sender has not sent any weather packets the latest 10 day(s).
| Time | Temp. | Humidity | Pressure | Rain* | Wind** | Luminosity | Snow |
|---|---|---|---|---|---|---|---|
| 1787483848 | 18.33° C | 97% | 1012.5 hPa | 0 mm | - | 26 W/m² | - |
| 1787483545 | 18.33° C | 97% | 1012.6 hPa | 0 mm | - | 29 W/m² | - |
| 1787483240 | 18.33° C | 97% | 1012.4 hPa | 0 mm | - | 20 W/m² | - |
| 1787482937 | 18.33° C | 97% | 1012.7 hPa | 0 mm | - | 23 W/m² | - |
| 1787482632 | 18.33° C | 97% | 1012.5 hPa | 0 mm | - | 15 W/m² | - |
| 1787482328 | 18.33° C | 97% | 1012.7 hPa | 0 mm | - | 15 W/m² | - |
| 1787482023 | 17.78° C | 97% | 1012.8 hPa | 0 mm | - | 9 W/m² | - |
| 1787481718 | 17.78° C | 97% | 1012.6 hPa | 0 mm | - | 6 W/m² | - |
| 1787481417 | 17.78° C | 97% | 1012.5 hPa | 0 mm | - | 6 W/m² | - |
| 1787481112 | 17.78° C | 97% | 1012.5 hPa | 0 mm | - | 8 W/m² | - |
| 1787480808 | 17.78° C | 97% | 1012.2 hPa | 0 mm | - | 8 W/m² | - |
| 1787480504 | 17.78° C | 97% | 1012.4 hPa | 0 mm | - | 9 W/m² | - |
| 1787480200 | 17.78° C | 97% | 1012.4 hPa | 0 mm | - | 6 W/m² | - |
| 1787479895 | 17.78° C | 97% | 1012.4 hPa | 0 mm | - | 5 W/m² | - |
| 1787479592 | 17.78° C | 97% | 1012.5 hPa | 0 mm | - | 0 W/m² | - |
| 1787479288 | 17.78° C | 97% | 1012.5 hPa | 0 mm | - | 0 W/m² | - |
| 1787478987 | 17.78° C | 97% | 1012.3 hPa | 0 mm | - | 0 W/m² | - |
| 1787478687 | 17.78° C | 97% | 1012.4 hPa | 0 mm | - | 0 W/m² | - |
| 1787478384 | 17.78° C | 97% | 1012.1 hPa | 0 mm | - | 0 W/m² | - |
| 1787478080 | 17.78° C | 97% | 1012.3 hPa | 0 mm | - | 0 W/m² | - |
| 1787477780 | 17.78° C | 97% | 1012.6 hPa | 0 mm | - | 0 W/m² | - |
| 1787477476 | 17.78° C | 97% | 1012.7 hPa | 0 mm | - | 0 W/m² | - |
| 1787477172 | 17.78° C | 97% | 1012.7 hPa | 0 mm | - | 0 W/m² | - |
| 1787476867 | 17.78° C | 97% | 1012.7 hPa | 0 mm | - | 0 W/m² | - |
| 1787476561 | 17.78° C | 97% | 1012.5 hPa | 0 mm | - | 0 W/m² | - |
* Rain latest hour (hover to see other rain measurements)
** Current wind speed in m/s (hover to see current wind gust speed)